Time,TemperatureF,DewpointF,PressureIn,WindDirection,WindDirectionDegrees,WindSpeedMPH,WindSpeedGustMPH,Humidity,HourlyPrecipIn,Conditions,Clouds,dailyrainin,SoftwareType,DateUTC
2013-05-14 00:01:00,38.6,33.6,29.86,North,-999,-999.0,-999.0,76,-99.99,,,-99.99,Homeseer,2013-05-14 04:01:00,
2013-05-14 00:02:00,38.6,33.6,29.86,North,-999,-999.0,-999.0,76,-99.99,,,-99.99,Homeseer,2013-05-14 04:02:00,
2013-05-14 00:04:00,38.6,33.6,29.86,North,-999,-999.0,-999.0,76,-99.99,,,-99.99,Homeseer,2013-05-14 04:04:00,
2013-05-14 00:08:00,38.4,33.4,29.85,North,-999,-999.0,-999.0,76,-99.99,,,-99.99,Homeseer,2013-05-14 04:08:00,
2013-05-14 00:12:00,38.4,33.6,29.85,North,-999,-999.0,-999.0,77,-99.99,,,-99.99,Homeseer,2013-05-14 04:12:00,
2013-05-14 00:17:00,38.3,33.8,29.85,North,-999,-999.0,-999.0,78,-99.99,,,-99.99,Homeseer,2013-05-14 04:17:00,
2013-05-14 00:22:00,38.2,33.7,29.85,North,-999,-999.0,-999.0,78,-99.99,,,-99.99,Homeseer,2013-05-14 04:22:00,
2013-05-14 00:27:00,38.1,33.8,29.84,North,-999,-999.0,-999.0,79,-99.99,,,-99.99,Homeseer,2013-05-14 04:27:00,
2013-05-14 00:32:00,37.9,33.6,29.85,North,-999,-999.0,-999.0,79,-99.99,,,-99.99,Homeseer,2013-05-14 04:32:00,
2013-05-14 00:37:00,37.8,33.5,29.85,North,-999,-999.0,-999.0,79,-99.99,,,-99.99,Homeseer,2013-05-14 04:37:00,
2013-05-14 00:42:00,37.7,33.4,29.85,North,-999,-999.0,-999.0,79,-99.99,,,-99.99,Homeseer,2013-05-14 04:42:00,
2013-05-14 00:47:00,37.4,33.6,29.85,North,-999,-999.0,-999.0,81,-99.99,,,-99.99,Homeseer,2013-05-14 04:47:00,
2013-05-14 00:52:00,37.4,33.4,29.85,North,-999,-999.0,-999.0,80,-99.99,,,-99.99,Homeseer,2013-05-14 04:52:00,
2013-05-14 00:57:00,37.4,33.4,29.85,North,-999,-999.0,-999.0,80,-99.99,,,-99.99,Homeseer,2013-05-14 04:57:00,
2013-05-14 01:02:00,37.3,33.0,29.85,North,-999,-999.0,-999.0,79,-99.99,,,-99.99,Homeseer,2013-05-14 05:02:00,
2013-05-14 01:07:00,37.2,33.2,29.85,North,-999,-999.0,-999.0,80,-99.99,,,-99.99,Homeseer,2013-05-14 05:07:00,
2013-05-14 01:12:00,37.0,33.4,29.86,North,-999,-999.0,-999.0,82,-99.99,,,-99.99,Homeseer,2013-05-14 05:12:00,
2013-05-14 01:17:00,37.0,33.0,29.87,North,-999,-999.0,-999.0,80,-99.99,,,-99.99,Homeseer,2013-05-14 05:17:00,
2013-05-14 01:22:00,36.9,32.9,29.86,North,-999,-999.0,-999.0,80,-99.99,,,-99.99,Homeseer,2013-05-14 05:22:00,
2013-05-14 01:27:00,36.6,32.8,29.86,North,-999,-999.0,-999.0,81,-99.99,,,-99.99,Homeseer,2013-05-14 05:27:00,
2013-05-14 01:32:00,36.6,32.8,29.86,North,-999,-999.0,-999.0,81,-99.99,,,-99.99,Homeseer,2013-05-14 05:32:00,
2013-05-14 01:37:00,36.5,32.9,29.86,North,-999,-999.0,-999.0,82,-99.99,,,-99.99,Homeseer,2013-05-14 05:37:00,
2013-05-14 01:42:00,36.6,32.8,29.86,North,-999,-999.0,-999.0,81,-99.99,,,-99.99,Homeseer,2013-05-14 05:42:00,
2013-05-14 01:47:00,36.6,32.8,29.86,North,-999,-999.0,-999.0,81,-99.99,,,-99.99,Homeseer,2013-05-14 05:47:00,
2013-05-14 01:52:00,36.6,33.0,29.86,North,-999,-999.0,-999.0,82,-99.99,,,-99.99,Homeseer,2013-05-14 05:52:00,
2013-05-14 01:57:00,36.6,33.2,29.85,North,-999,-999.0,-999.0,83,-99.99,,,-99.99,Homeseer,2013-05-14 05:57:00,
2013-05-14 02:02:00,36.8,33.0,29.85,North,-999,-999.0,-999.0,81,-99.99,,,-99.99,Homeseer,2013-05-14 06:02:00,
2013-05-14 02:07:00,36.8,33.4,29.85,North,-999,-999.0,-999.0,83,-99.99,,,-99.99,Homeseer,2013-05-14 06:07:00,
2013-05-14 02:12:00,36.8,33.4,29.85,North,-999,-999.0,-999.0,83,-99.99,,,-99.99,Homeseer,2013-05-14 06:12:00,
2013-05-14 02:17:00,36.6,33.2,29.85,North,-999,-999.0,-999.0,83,-99.99,,,-99.99,Homeseer,2013-05-14 06:17:00,
2013-05-14 02:22:00,36.6,33.2,29.85,North,-999,-999.0,-999.0,83,-99.99,,,-99.99,Homeseer,2013-05-14 06:22:00,
2013-05-14 02:27:00,36.6,33.2,29.85,North,-999,-999.0,-999.0,83,-99.99,,,-99.99,Homeseer,2013-05-14 06:27:00,
2013-05-14 02:32:00,36.6,33.5,29.85,North,-999,-999.0,-999.0,84,-99.99,,,-99.99,Homeseer,2013-05-14 06:32:00,
2013-05-14 02:37:00,36.8,33.4,29.85,North,-999,-999.0,-999.0,83,-99.99,,,-99.99,Homeseer,2013-05-14 06:37:00,
2013-05-14 02:42:00,36.9,33.7,29.85,North,-999,-999.0,-999.0,84,-99.99,,,-99.99,Homeseer,2013-05-14 06:42:00,
2013-05-14 02:47:00,37.1,33.9,29.85,North,-999,-999.0,-999.0,84,-99.99,,,-99.99,Homeseer,2013-05-14 06:47:00,
2013-05-14 02:52:00,37.3,34.1,29.85,North,-999,-999.0,-999.0,84,-99.99,,,-99.99,Homeseer,2013-05-14 06:52:00,
2013-05-14 02:57:00,37.6,34.4,29.84,North,-999,-999.0,-999.0,84,-99.99,,,-99.99,Homeseer,2013-05-14 06:57:00,
2013-05-14 03:02:00,37.7,34.1,29.84,North,-999,-999.0,-999.0,82,-99.99,,,-99.99,Homeseer,2013-05-14 07:02:00,
2013-05-14 03:07:00,37.9,34.7,29.84,North,-999,-999.0,-999.0,84,-99.99,,,-99.99,Homeseer,2013-05-14 07:07:00,
2013-05-14 03:12:00,38.0,34.8,29.84,North,-999,-999.0,-999.0,84,-99.99,,,-99.99,Homeseer,2013-05-14 07:12:00,
2013-05-14 03:17:00,38.1,34.9,29.83,North,-999,-999.0,-999.0,84,-99.99,,,-99.99,Homeseer,2013-05-14 07:17:00,
2013-05-14 03:22:00,37.9,34.9,29.84,North,-999,-999.0,-999.0,85,-99.99,,,-99.99,Homeseer,2013-05-14 07:22:00,
2013-05-14 03:27:00,37.9,34.9,29.84,North,-999,-999.0,-999.0,85,-99.99,,,-99.99,Homeseer,2013-05-14 07:27:00,
2013-05-14 03:32:00,37.7,34.7,29.84,North,-999,-999.0,-999.0,85,-99.99,,,-99.99,Homeseer,2013-05-14 07:32:00,
2013-05-14 03:37:00,37.4,34.4,29.84,North,-999,-999.0,-999.0,85,-99.99,,,-99.99,Homeseer,2013-05-14 07:37:00,
2013-05-14 03:42:00,37.2,34.3,29.84,North,-999,-999.0,-999.0,85,-99.99,,,-99.99,Homeseer,2013-05-14 07:42:00,
2013-05-14 03:47:00,37.2,34.0,29.85,North,-999,-999.0,-999.0,84,-99.99,,,-99.99,Homeseer,2013-05-14 07:47:00,
2013-05-14 03:52:00,37.0,33.8,29.84,North,-999,-999.0,-999.0,84,-99.99,,,-99.99,Homeseer,2013-05-14 07:52:00,
2013-05-14 03:57:00,36.9,33.7,29.85,North,-999,-999.0,-999.0,84,-99.99,,,-99.99,Homeseer,2013-05-14 07:57:00,
2013-05-14 04:02:00,36.8,33.6,29.84,North,-999,-999.0,-999.0,84,-99.99,,,-99.99,Homeseer,2013-05-14 08:02:00,
2013-05-14 04:07:00,36.5,33.6,29.85,North,-999,-999.0,-999.0,85,-99.99,,,-99.99,Homeseer,2013-05-14 08:07:00,
2013-05-14 04:12:00,36.4,33.5,29.85,North,-999,-999.0,-999.0,85,-99.99,,,-99.99,Homeseer,2013-05-14 08:12:00,
2013-05-14 04:17:00,36.2,33.3,29.85,North,-999,-999.0,-999.0,85,-99.99,,,-99.99,Homeseer,2013-05-14 08:17:00,
2013-05-14 04:22:00,36.1,33.4,29.85,North,-999,-999.0,-999.0,86,-99.99,,,-99.99,Homeseer,2013-05-14 08:22:00,
2013-05-14 04:27:00,35.9,33.2,29.85,North,-999,-999.0,-999.0,86,-99.99,,,-99.99,Homeseer,2013-05-14 08:27:00,
2013-05-14 04:32:00,35.9,33.2,29.85,North,-999,-999.0,-999.0,86,-99.99,,,-99.99,Homeseer,2013-05-14 08:32:00,
2013-05-14 04:37:00,35.6,33.1,29.85,North,-999,-999.0,-999.0,87,-99.99,,,-99.99,Homeseer,2013-05-14 08:37:00,
2013-05-14 04:42:00,35.6,33.1,29.86,North,-999,-999.0,-999.0,87,-99.99,,,-99.99,Homeseer,2013-05-14 08:42:00,
2013-05-14 04:47:00,35.5,32.6,29.86,North,-999,-999.0,-999.0,85,-99.99,,,-99.99,Homeseer,2013-05-14 08:47:00,
2013-05-14 04:52:00,35.4,32.9,29.86,North,-999,-999.0,-999.0,87,-99.99,,,-99.99,Homeseer,2013-05-14 08:52:00,
2013-05-14 04:57:00,35.3,32.8,29.86,North,-999,-999.0,-999.0,87,-99.99,,,-99.99,Homeseer,2013-05-14 08:57:00,
2013-05-14 05:02:00,35.3,32.8,29.87,North,-999,-999.0,-999.0,87,-99.99,,,-99.99,Homeseer,2013-05-14 09:02:00,
2013-05-14 05:07:00,35.3,32.6,29.87,North,-999,-999.0,-999.0,86,-99.99,,,-99.99,Homeseer,2013-05-14 09:07:00,
2013-05-14 05:12:00,35.3,32.8,29.87,North,-999,-999.0,-999.0,87,-99.99,,,-99.99,Homeseer,2013-05-14 09:12:00,
2013-05-14 05:17:00,35.3,32.6,29.87,North,-999,-999.0,-999.0,86,-99.99,,,-99.99,Homeseer,2013-05-14 09:17:00,
2013-05-14 05:22:00,35.3,32.8,29.87,North,-999,-999.0,-999.0,87,-99.99,,,-99.99,Homeseer,2013-05-14 09:22:00,
2013-05-14 05:27:00,35.4,33.1,29.87,North,-999,-999.0,-999.0,88,-99.99,,,-99.99,Homeseer,2013-05-14 09:27:00,
2013-05-14 05:32:00,35.5,33.2,29.87,North,-999,-999.0,-999.0,88,-99.99,,,-99.99,Homeseer,2013-05-14 09:32:00,
2013-05-14 05:37:00,35.8,33.5,29.87,North,-999,-999.0,-999.0,88,-99.99,,,-99.99,Homeseer,2013-05-14 09:37:00,
2013-05-14 05:42:00,35.9,33.4,29.87,North,-999,-999.0,-999.0,87,-99.99,,,-99.99,Homeseer,2013-05-14 09:42:00,
2013-05-14 05:47:00,36.2,33.9,29.87,North,-999,-999.0,-999.0,88,-99.99,,,-99.99,Homeseer,2013-05-14 09:47:00,
2013-05-14 05:52:00,36.4,34.1,29.87,North,-999,-999.0,-999.0,88,-99.99,,,-99.99,Homeseer,2013-05-14 09:52:00,
2013-05-14 05:57:00,36.6,34.3,29.88,North,-999,-999.0,-999.0,88,-99.99,,,-99.99,Homeseer,2013-05-14 09:57:00,
2013-05-14 06:02:00,36.8,34.3,29.88,North,-999,-999.0,-999.0,87,-99.99,,,-99.99,Homeseer,2013-05-14 10:02:00,
2013-05-14 06:07:00,37.1,35.0,29.87,North,-999,-999.0,-999.0,89,-99.99,,,-99.99,Homeseer,2013-05-14 10:07:00,
2013-05-14 06:12:00,37.4,34.9,29.89,North,-999,-999.0,-999.0,87,-99.99,,,-99.99,Homeseer,2013-05-14 10:12:00,
2013-05-14 06:17:00,37.7,35.4,29.89,North,-999,-999.0,-999.0,88,-99.99,,,-99.99,Homeseer,2013-05-14 10:17:00,
2013-05-14 06:22:00,38.1,35.8,29.89,North,-999,-999.0,-999.0,88,-99.99,,,-99.99,Homeseer,2013-05-14 10:22:00,
2013-05-14 06:27:00,38.4,36.1,29.89,North,-999,-999.0,-999.0,88,-99.99,,,-99.99,Homeseer,2013-05-14 10:27:00,
2013-05-14 06:32:00,38.9,36.3,29.89,North,-999,-999.0,-999.0,87,-99.99,,,-99.99,Homeseer,2013-05-14 10:32:00,
2013-05-14 06:37:00,39.2,36.6,29.89,North,-999,-999.0,-999.0,87,-99.99,,,-99.99,Homeseer,2013-05-14 10:37:00,
2013-05-14 06:42:00,39.6,37.0,29.89,North,-999,-999.0,-999.0,87,-99.99,,,-99.99,Homeseer,2013-05-14 10:42:00,
2013-05-14 06:47:00,39.9,37.3,29.89,North,-999,-999.0,-999.0,87,-99.99,,,-99.99,Homeseer,2013-05-14 10:47:00,
2013-05-14 06:52:00,40.6,38.0,29.89,North,-999,-999.0,-999.0,87,-99.99,,,-99.99,Homeseer,2013-05-14 10:52:00,
2013-05-14 06:57:00,41.3,38.7,29.89,North,-999,-999.0,-999.0,87,-99.99,,,-99.99,Homeseer,2013-05-14 10:57:00,
2013-05-14 07:02:00,41.7,38.9,29.90,North,-999,-999.0,-999.0,86,-99.99,,,-99.99,Homeseer,2013-05-14 11:02:00,
2013-05-14 07:07:00,42.4,39.1,29.90,North,-999,-999.0,-999.0,84,-99.99,,,-99.99,Homeseer,2013-05-14 11:07:00,
2013-05-14 07:12:00,43.0,39.5,29.90,North,-999,-999.0,-999.0,83,-99.99,,,-99.99,Homeseer,2013-05-14 11:12:00,
2013-05-14 07:17:00,43.5,39.3,29.90,North,-999,-999.0,-999.0,80,-99.99,,,-99.99,Homeseer,2013-05-14 11:17:00,
2013-05-14 07:22:00,44.0,39.8,29.90,North,-999,-999.0,-999.0,80,-99.99,,,-99.99,Homeseer,2013-05-14 11:22:00,
2013-05-14 07:27:00,44.4,39.0,29.90,North,-999,-999.0,-999.0,75,-99.99,,,-99.99,Homeseer,2013-05-14 11:27:00,
2013-05-14 07:32:00,45.0,39.8,29.91,North,-999,-999.0,-999.0,76,-99.99,,,-99.99,Homeseer,2013-05-14 11:32:00,
2013-05-14 07:37:00,45.3,39.3,29.90,North,-999,-999.0,-999.0,73,-99.99,,,-99.99,Homeseer,2013-05-14 11:37:00,
2013-05-14 07:42:00,45.8,39.3,29.90,North,-999,-999.0,-999.0,71,-99.99,,,-99.99,Homeseer,2013-05-14 11:42:00,
2013-05-14 07:47:00,46.2,39.7,29.91,North,-999,-999.0,-999.0,71,-99.99,,,-99.99,Homeseer,2013-05-14 11:47:00,
2013-05-14 07:52:00,46.7,39.9,29.91,North,-999,-999.0,-999.0,70,-99.99,,,-99.99,Homeseer,2013-05-14 11:52:00,
2013-05-14 07:58:00,47.0,39.6,29.91,North,-999,-999.0,-999.0,68,-99.99,,,-99.99,Homeseer,2013-05-14 11:58:00,
2013-05-14 08:03:00,46.9,39.2,29.91,North,-999,-999.0,-999.0,67,-99.99,,,-99.99,Homeseer,2013-05-14 12:03:00,
2013-05-14 08:08:00,47.0,37.9,29.91,North,-999,-999.0,-999.0,62,-99.99,,,-99.99,Homeseer,2013-05-14 12:08:00,
2013-05-14 08:13:00,47.3,39.6,29.91,North,-999,-999.0,-999.0,67,-99.99,,,-99.99,Homeseer,2013-05-14 12:13:00,
2013-05-14 08:18:00,47.4,39.2,29.90,North,-999,-999.0,-999.0,65,-99.99,,,-99.99,Homeseer,2013-05-14 12:18:00,
2013-05-14 08:23:00,47.9,38.7,29.91,North,-999,-999.0,-999.0,62,-99.99,,,-99.99,Homeseer,2013-05-14 12:23:00,
2013-05-14 08:28:00,49.0,40.1,29.90,North,-999,-999.0,-999.0,63,-99.99,,,-99.99,Homeseer,2013-05-14 12:28:00,
2013-05-14 08:33:00,51.0,41.3,29.90,North,-999,-999.0,-999.0,61,-99.99,,,-99.99,Homeseer,2013-05-14 12:33:00,
2013-05-14 08:38:00,51.6,41.0,29.90,North,-999,-999.0,-999.0,58,-99.99,,,-99.99,Homeseer,2013-05-14 12:38:00,
2013-05-14 08:43:00,52.0,41.0,29.90,North,-999,-999.0,-999.0,57,-99.99,,,-99.99,Homeseer,2013-05-14 12:43:00,
2013-05-14 08:48:00,52.6,41.6,29.90,North,-999,-999.0,-999.0,57,-99.99,,,-99.99,Homeseer,2013-05-14 12:48:00,
2013-05-14 08:53:00,53.8,41.3,29.89,North,-999,-999.0,-999.0,53,-99.99,,,-99.99,Homeseer,2013-05-14 12:53:00,
2013-05-14 08:58:00,54.6,41.3,29.89,North,-999,-999.0,-999.0,51,-99.99,,,-99.99,Homeseer,2013-05-14 12:58:00,
2013-05-14 09:03:00,55.6,42.2,29.89,North,-999,-999.0,-999.0,51,-99.99,,,-99.99,Homeseer,2013-05-14 13:03:00,
2013-05-14 09:08:00,55.7,43.0,29.89,North,-999,-999.0,-999.0,53,-99.99,,,-99.99,Homeseer,2013-05-14 13:08:00,
2013-05-14 09:13:00,55.3,39.6,29.89,North,-999,-999.0,-999.0,45,-99.99,,,-99.99,Homeseer,2013-05-14 13:13:00,
2013-05-14 09:18:00,55.1,40.2,29.89,North,-999,-999.0,-999.0,47,-99.99,,,-99.99,Homeseer,2013-05-14 13:18:00,
2013-05-14 09:23:00,55.4,39.7,29.88,North,-999,-999.0,-999.0,45,-99.99,,,-99.99,Homeseer,2013-05-14 13:23:00,
2013-05-14 09:28:00,55.0,40.9,29.89,North,-999,-999.0,-999.0,49,-99.99,,,-99.99,Homeseer,2013-05-14 13:28:00,
2013-05-14 09:33:00,55.8,38.7,29.88,North,-999,-999.0,-999.0,42,-99.99,,,-99.99,Homeseer,2013-05-14 13:33:00,
2013-05-14 09:38:00,55.6,38.6,29.87,North,-999,-999.0,-999.0,42,-99.99,,,-99.99,Homeseer,2013-05-14 13:38:00,
2013-05-14 09:43:00,56.2,41.2,29.88,North,-999,-999.0,-999.0,47,-99.99,,,-99.99,Homeseer,2013-05-14 13:43:00,
2013-05-14 09:48:00,57.5,39.8,29.87,North,-999,-999.0,-999.0,41,-99.99,,,-99.99,Homeseer,2013-05-14 13:48:00,
2013-05-14 09:53:00,57.9,40.2,29.87,North,-999,-999.0,-999.0,41,-99.99,,,-99.99,Homeseer,2013-05-14 13:53:00,
2013-05-14 09:58:00,56.4,39.7,29.87,North,-999,-999.0,-999.0,43,-99.99,,,-99.99,Homeseer,2013-05-14 13:58:00,
2013-05-14 10:03:00,56.4,38.8,29.86,North,-999,-999.0,-999.0,41,-99.99,,,-99.99,Homeseer,2013-05-14 14:03:00,
2013-05-14 10:08:00,57.7,43.3,29.86,North,-999,-999.0,-999.0,49,-99.99,,,-99.99,Homeseer,2013-05-14 14:08:00,
2013-05-14 10:13:00,57.0,38.4,29.87,North,-999,-999.0,-999.0,39,-99.99,,,-99.99,Homeseer,2013-05-14 14:13:00,
2013-05-14 10:18:00,56.0,37.5,29.86,North,-999,-999.0,-999.0,39,-99.99,,,-99.99,Homeseer,2013-05-14 14:18:00,
2013-05-14 10:23:00,54.6,36.8,29.86,North,-999,-999.0,-999.0,40,-99.99,,,-99.99,Homeseer,2013-05-14 14:23:00,
2013-05-14 10:28:00,54.0,36.7,29.86,North,-999,-999.0,-999.0,41,-99.99,,,-99.99,Homeseer,2013-05-14 14:28:00,
2013-05-14 10:33:00,53.6,39.2,29.86,North,-999,-999.0,-999.0,48,-99.99,,,-99.99,Homeseer,2013-05-14 14:33:00,
2013-05-14 10:38:00,55.2,39.1,29.85,North,-999,-999.0,-999.0,44,-99.99,,,-99.99,Homeseer,2013-05-14 14:38:00,
2013-05-14 10:43:00,56.4,39.7,29.86,North,-999,-999.0,-999.0,43,-99.99,,,-99.99,Homeseer,2013-05-14 14:43:00,
2013-05-14 10:48:00,56.1,39.0,29.87,North,-999,-999.0,-999.0,42,-99.99,,,-99.99,Homeseer,2013-05-14 14:48:00,
2013-05-14 10:53:00,55.4,37.9,29.86,North,-999,-999.0,-999.0,41,-99.99,,,-99.99,Homeseer,2013-05-14 14:53:00,
2013-05-14 10:58:00,54.6,37.7,29.87,North,-999,-999.0,-999.0,42,-99.99,,,-99.99,Homeseer,2013-05-14 14:58:00,
2013-05-14 11:03:00,55.7,38.2,29.86,North,-999,-999.0,-999.0,41,-99.99,,,-99.99,Homeseer,2013-05-14 15:03:00,
2013-05-14 11:08:00,57.6,39.4,29.85,North,-999,-999.0,-999.0,40,-99.99,,,-99.99,Homeseer,2013-05-14 15:08:00,
2013-05-14 11:13:00,56.9,37.9,29.86,North,-999,-999.0,-999.0,38,-99.99,,,-99.99,Homeseer,2013-05-14 15:13:00,
2013-05-14 11:18:00,56.7,40.4,29.87,North,-999,-999.0,-999.0,44,-99.99,,,-99.99,Homeseer,2013-05-14 15:18:00,
2013-05-14 11:23:00,57.5,39.8,29.87,North,-999,-999.0,-999.0,41,-99.99,,,-99.99,Homeseer,2013-05-14 15:23:00,
2013-05-14 11:28:00,57.4,38.8,29.87,North,-999,-999.0,-999.0,39,-99.99,,,-99.99,Homeseer,2013-05-14 15:28:00,
2013-05-14 11:33:00,56.2,39.5,29.87,North,-999,-999.0,-999.0,43,-99.99,,,-99.99,Homeseer,2013-05-14 15:33:00,
2013-05-14 11:38:00,56.9,38.3,29.87,North,-999,-999.0,-999.0,39,-99.99,,,-99.99,Homeseer,2013-05-14 15:38:00,
2013-05-14 11:43:00,57.5,40.2,29.86,North,-999,-999.0,-999.0,42,-99.99,,,-99.99,Homeseer,2013-05-14 15:43:00,
2013-05-14 11:48:00,57.5,39.3,29.86,North,-999,-999.0,-999.0,40,-99.99,,,-99.99,Homeseer,2013-05-14 15:48:00,
2013-05-14 11:53:00,57.7,38.1,29.86,North,-999,-999.0,-999.0,37,-99.99,,,-99.99,Homeseer,2013-05-14 15:53:00,
2013-05-14 11:58:00,57.9,39.7,29.86,North,-999,-999.0,-999.0,40,-99.99,,,-99.99,Homeseer,2013-05-14 15:58:00,
2013-05-14 12:03:00,57.8,38.6,29.86,North,-999,-999.0,-999.0,38,-99.99,,,-99.99,Homeseer,2013-05-14 16:03:00,
2013-05-14 12:08:00,58.8,38.5,29.85,North,-999,-999.0,-999.0,36,-99.99,,,-99.99,Homeseer,2013-05-14 16:08:00,
2013-05-14 12:13:00,59.9,39.5,29.85,North,-999,-999.0,-999.0,36,-99.99,,,-99.99,Homeseer,2013-05-14 16:13:00,
2013-05-14 12:18:00,60.0,39.6,29.85,North,-999,-999.0,-999.0,36,-99.99,,,-99.99,Homeseer,2013-05-14 16:18:00,
2013-05-14 12:23:00,58.4,38.7,29.86,North,-999,-999.0,-999.0,37,-99.99,,,-99.99,Homeseer,2013-05-14 16:23:00,
2013-05-14 12:28:00,57.6,39.0,29.85,North,-999,-999.0,-999.0,39,-99.99,,,-99.99,Homeseer,2013-05-14 16:28:00,
2013-05-14 12:33:00,58.9,39.1,29.85,North,-999,-999.0,-999.0,37,-99.99,,,-99.99,Homeseer,2013-05-14 16:33:00,
2013-05-14 12:38:00,60.2,40.8,29.85,North,-999,-999.0,-999.0,38,-99.99,,,-99.99,Homeseer,2013-05-14 16:38:00,
2013-05-14 12:43:00,60.6,40.1,29.85,North,-999,-999.0,-999.0,36,-99.99,,,-99.99,Homeseer,2013-05-14 16:43:00,
2013-05-14 12:48:00,59.7,41.3,29.84,North,-999,-999.0,-999.0,40,-99.99,,,-99.99,Homeseer,2013-05-14 16:48:00,
2013-05-14 12:53:00,59.2,39.9,29.85,North,-999,-999.0,-999.0,38,-99.99,,,-99.99,Homeseer,2013-05-14 16:53:00,
2013-05-14 12:58:00,60.5,40.0,29.84,North,-999,-999.0,-999.0,36,-99.99,,,-99.99,Homeseer,2013-05-14 16:58:00,
2013-05-14 13:03:00,61.1,39.5,29.84,North,-999,-999.0,-999.0,34,-99.99,,,-99.99,Homeseer,2013-05-14 17:03:00,
2013-05-14 13:08:00,61.7,41.0,29.83,North,-999,-999.0,-999.0,36,-99.99,,,-99.99,Homeseer,2013-05-14 17:08:00,
2013-05-14 13:13:00,62.4,43.7,29.84,North,-999,-999.0,-999.0,40,-99.99,,,-99.99,Homeseer,2013-05-14 17:13:00,
2013-05-14 13:18:00,60.2,37.0,29.84,North,-999,-999.0,-999.0,31,-99.99,,,-99.99,Homeseer,2013-05-14 17:18:00,
2013-05-14 13:23:00,59.3,39.0,29.84,North,-999,-999.0,-999.0,36,-99.99,,,-99.99,Homeseer,2013-05-14 17:23:00,
2013-05-14 13:28:00,59.9,41.0,29.84,North,-999,-999.0,-999.0,39,-99.99,,,-99.99,Homeseer,2013-05-14 17:28:00,
2013-05-14 13:33:00,60.6,42.1,29.83,North,-999,-999.0,-999.0,40,-99.99,,,-99.99,Homeseer,2013-05-14 17:33:00,
2013-05-14 13:38:00,60.6,40.1,29.83,North,-999,-999.0,-999.0,36,-99.99,,,-99.99,Homeseer,2013-05-14 17:38:00,
2013-05-14 13:43:00,59.6,38.2,29.83,North,-999,-999.0,-999.0,34,-99.99,,,-99.99,Homeseer,2013-05-14 17:43:00,
2013-05-14 13:48:00,58.7,38.4,29.84,North,-999,-999.0,-999.0,36,-99.99,,,-99.99,Homeseer,2013-05-14 17:48:00,
2013-05-14 13:53:00,57.4,37.3,29.84,North,-999,-999.0,-999.0,36,-99.99,,,-99.99,Homeseer,2013-05-14 17:53:00,
2013-05-14 13:58:00,57.7,40.4,29.83,North,-999,-999.0,-999.0,42,-99.99,,,-99.99,Homeseer,2013-05-14 17:58:00,
2013-05-14 14:03:00,58.8,40.9,29.83,North,-999,-999.0,-999.0,41,-99.99,,,-99.99,Homeseer,2013-05-14 18:03:00,
2013-05-14 14:08:00,58.9,38.1,29.83,North,-999,-999.0,-999.0,35,-99.99,,,-99.99,Homeseer,2013-05-14 18:08:00,
2013-05-14 14:13:00,58.5,39.3,29.83,North,-999,-999.0,-999.0,38,-99.99,,,-99.99,Homeseer,2013-05-14 18:13:00,
2013-05-14 14:18:00,58.0,37.3,29.83,North,-999,-999.0,-999.0,35,-99.99,,,-99.99,Homeseer,2013-05-14 18:18:00,
2013-05-14 14:23:00,58.7,38.4,29.83,North,-999,-999.0,-999.0,36,-99.99,,,-99.99,Homeseer,2013-05-14 18:23:00,
2013-05-14 14:28:00,58.0,39.3,29.83,North,-999,-999.0,-999.0,39,-99.99,,,-99.99,Homeseer,2013-05-14 18:28:00,
2013-05-14 14:33:00,57.9,38.2,29.83,North,-999,-999.0,-999.0,37,-99.99,,,-99.99,Homeseer,2013-05-14 18:33:00,
2013-05-14 14:38:00,58.4,38.7,29.83,North,-999,-999.0,-999.0,37,-99.99,,,-99.99,Homeseer,2013-05-14 18:38:00,
2013-05-14 14:43:00,58.2,38.0,29.82,North,-999,-999.0,-999.0,36,-99.99,,,-99.99,Homeseer,2013-05-14 18:43:00,
2013-05-14 14:48:00,57.6,37.5,29.83,North,-999,-999.0,-999.0,36,-99.99,,,-99.99,Homeseer,2013-05-14 18:48:00,
2013-05-14 14:53:00,57.7,37.6,29.82,North,-999,-999.0,-999.0,36,-99.99,,,-99.99,Homeseer,2013-05-14 18:53:00,
2013-05-14 14:58:00,58.1,38.9,29.82,North,-999,-999.0,-999.0,38,-99.99,,,-99.99,Homeseer,2013-05-14 18:58:00,
2013-05-14 15:03:00,58.2,38.5,29.81,North,-999,-999.0,-999.0,37,-99.99,,,-99.99,Homeseer,2013-05-14 19:03:00,
2013-05-14 15:08:00,58.4,39.7,29.81,North,-999,-999.0,-999.0,39,-99.99,,,-99.99,Homeseer,2013-05-14 19:08:00,
2013-05-14 15:13:00,57.5,37.4,29.81,North,-999,-999.0,-999.0,36,-99.99,,,-99.99,Homeseer,2013-05-14 19:13:00,
2013-05-14 15:18:00,57.2,37.6,29.81,North,-999,-999.0,-999.0,37,-99.99,,,-99.99,Homeseer,2013-05-14 19:18:00,
2013-05-14 15:23:00,57.1,38.0,29.81,North,-999,-999.0,-999.0,38,-99.99,,,-99.99,Homeseer,2013-05-14 19:23:00,
2013-05-14 15:28:00,57.4,37.3,29.80,North,-999,-999.0,-999.0,36,-99.99,,,-99.99,Homeseer,2013-05-14 19:28:00,
2013-05-14 15:33:00,58.5,37.2,29.80,North,-999,-999.0,-999.0,34,-99.99,,,-99.99,Homeseer,2013-05-14 19:33:00,
2013-05-14 15:38:00,59.4,38.5,29.80,North,-999,-999.0,-999.0,35,-99.99,,,-99.99,Homeseer,2013-05-14 19:38:00,
2013-05-14 15:43:00,58.7,37.9,29.80,North,-999,-999.0,-999.0,35,-99.99,,,-99.99,Homeseer,2013-05-14 19:43:00,
2013-05-14 15:48:00,57.8,37.7,29.80,North,-999,-999.0,-999.0,36,-99.99,,,-99.99,Homeseer,2013-05-14 19:48:00,
2013-05-14 15:53:00,57.1,37.5,29.80,North,-999,-999.0,-999.0,37,-99.99,,,-99.99,Homeseer,2013-05-14 19:53:00,
2013-05-14 15:58:00,56.9,38.3,29.80,North,-999,-999.0,-999.0,39,-99.99,,,-99.99,Homeseer,2013-05-14 19:58:00,
2013-05-14 16:03:00,56.9,36.9,29.80,North,-999,-999.0,-999.0,36,-99.99,,,-99.99,Homeseer,2013-05-14 20:03:00,
2013-05-14 16:08:00,57.2,36.6,29.80,North,-999,-999.0,-999.0,35,-99.99,,,-99.99,Homeseer,2013-05-14 20:08:00,
2013-05-14 16:13:00,57.7,37.6,29.80,North,-999,-999.0,-999.0,36,-99.99,,,-99.99,Homeseer,2013-05-14 20:13:00,
2013-05-14 16:18:00,57.6,37.0,29.80,North,-999,-999.0,-999.0,35,-99.99,,,-99.99,Homeseer,2013-05-14 20:18:00,
2013-05-14 16:23:00,57.5,36.9,29.80,North,-999,-999.0,-999.0,35,-99.99,,,-99.99,Homeseer,2013-05-14 20:23:00,
2013-05-14 16:28:00,56.9,36.4,29.80,North,-999,-999.0,-999.0,35,-99.99,,,-99.99,Homeseer,2013-05-14 20:28:00,
2013-05-14 16:33:00,56.6,36.1,29.81,North,-999,-999.0,-999.0,35,-99.99,,,-99.99,Homeseer,2013-05-14 20:33:00,
2013-05-14 16:38:00,56.3,36.3,29.80,North,-999,-999.0,-999.0,36,-99.99,,,-99.99,Homeseer,2013-05-14 20:38:00,
2013-05-14 16:43:00,56.6,36.6,29.80,North,-999,-999.0,-999.0,36,-99.99,,,-99.99,Homeseer,2013-05-14 20:43:00,
2013-05-14 16:48:00,56.8,37.3,29.80,North,-999,-999.0,-999.0,37,-99.99,,,-99.99,Homeseer,2013-05-14 20:48:00,
2013-05-14 16:53:00,56.7,37.2,29.79,North,-999,-999.0,-999.0,37,-99.99,,,-99.99,Homeseer,2013-05-14 20:53:00,
2013-05-14 16:58:00,56.4,36.4,29.79,North,-999,-999.0,-999.0,36,-99.99,,,-99.99,Homeseer,2013-05-14 20:58:00,
2013-05-14 17:03:00,56.2,36.8,29.79,North,-999,-999.0,-999.0,37,-99.99,,,-99.99,Homeseer,2013-05-14 21:03:00,
2013-05-14 17:08:00,56.0,37.1,29.79,North,-999,-999.0,-999.0,38,-99.99,,,-99.99,Homeseer,2013-05-14 21:08:00,
2013-05-14 17:13:00,56.1,36.7,29.79,North,-999,-999.0,-999.0,37,-99.99,,,-99.99,Homeseer,2013-05-14 21:13:00,
2013-05-14 17:18:00,56.0,36.1,29.79,North,-999,-999.0,-999.0,36,-99.99,,,-99.99,Homeseer,2013-05-14 21:18:00,
2013-05-14 17:23:00,56.2,36.8,29.79,North,-999,-999.0,-999.0,37,-99.99,,,-99.99,Homeseer,2013-05-14 21:23:00,
2013-05-14 17:28:00,56.3,37.8,29.80,North,-999,-999.0,-999.0,39,-99.99,,,-99.99,Homeseer,2013-05-14 21:28:00,
2013-05-14 17:33:00,56.1,36.7,29.80,North,-999,-999.0,-999.0,37,-99.99,,,-99.99,Homeseer,2013-05-14 21:33:00,
2013-05-14 17:38:00,55.9,36.5,29.79,North,-999,-999.0,-999.0,37,-99.99,,,-99.99,Homeseer,2013-05-14 21:38:00,
2013-05-14 17:43:00,56.1,36.7,29.79,North,-999,-999.0,-999.0,37,-99.99,,,-99.99,Homeseer,2013-05-14 21:43:00,
2013-05-14 17:48:00,56.3,35.8,29.79,North,-999,-999.0,-999.0,35,-99.99,,,-99.99,Homeseer,2013-05-14 21:48:00,
2013-05-14 17:53:00,56.3,35.3,29.79,North,-999,-999.0,-999.0,34,-99.99,,,-99.99,Homeseer,2013-05-14 21:53:00,
2013-05-14 17:58:00,56.0,35.6,29.79,North,-999,-999.0,-999.0,35,-99.99,,,-99.99,Homeseer,2013-05-14 21:58:00,
2013-05-14 18:03:00,55.9,36.5,29.79,North,-999,-999.0,-999.0,37,-99.99,,,-99.99,Homeseer,2013-05-14 22:03:00,
2013-05-14 18:08:00,55.4,36.1,29.79,North,-999,-999.0,-999.0,37,-99.99,,,-99.99,Homeseer,2013-05-14 22:08:00,
2013-05-14 18:13:00,55.3,36.0,29.79,North,-999,-999.0,-999.0,37,-99.99,,,-99.99,Homeseer,2013-05-14 22:13:00,
2013-05-14 18:18:00,55.2,35.4,29.80,North,-999,-999.0,-999.0,36,-99.99,,,-99.99,Homeseer,2013-05-14 22:18:00,
2013-05-14 18:23:00,55.0,35.7,29.79,North,-999,-999.0,-999.0,37,-99.99,,,-99.99,Homeseer,2013-05-14 22:23:00,
2013-05-14 18:28:00,55.1,35.8,29.80,North,-999,-999.0,-999.0,37,-99.99,,,-99.99,Homeseer,2013-05-14 22:28:00,
2013-05-14 18:33:00,55.2,36.4,29.79,North,-999,-999.0,-999.0,38,-99.99,,,-99.99,Homeseer,2013-05-14 22:33:00,
2013-05-14 18:38:00,55.2,36.8,29.80,North,-999,-999.0,-999.0,39,-99.99,,,-99.99,Homeseer,2013-05-14 22:38:00,
2013-05-14 18:43:00,55.1,36.8,29.80,North,-999,-999.0,-999.0,39,-99.99,,,-99.99,Homeseer,2013-05-14 22:43:00,
2013-05-14 18:48:00,55.2,36.8,29.80,North,-999,-999.0,-999.0,39,-99.99,,,-99.99,Homeseer,2013-05-14 22:48:00,
2013-05-14 18:53:00,55.2,36.4,29.80,North,-999,-999.0,-999.0,38,-99.99,,,-99.99,Homeseer,2013-05-14 22:53:00,
2013-05-14 18:58:00,55.2,36.8,29.81,North,-999,-999.0,-999.0,39,-99.99,,,-99.99,Homeseer,2013-05-14 22:58:00,
2013-05-14 19:03:00,55.1,36.3,29.80,North,-999,-999.0,-999.0,38,-99.99,,,-99.99,Homeseer,2013-05-14 23:03:00,
2013-05-14 19:08:00,55.0,36.2,29.81,North,-999,-999.0,-999.0,38,-99.99,,,-99.99,Homeseer,2013-05-14 23:08:00,
2013-05-14 19:13:00,55.1,36.8,29.81,North,-999,-999.0,-999.0,39,-99.99,,,-99.99,Homeseer,2013-05-14 23:13:00,
2013-05-14 19:18:00,55.1,37.7,29.81,North,-999,-999.0,-999.0,41,-99.99,,,-99.99,Homeseer,2013-05-14 23:18:00,
2013-05-14 19:23:00,54.9,36.6,29.81,North,-999,-999.0,-999.0,39,-99.99,,,-99.99,Homeseer,2013-05-14 23:23:00,
2013-05-14 19:28:00,54.6,36.8,29.82,North,-999,-999.0,-999.0,40,-99.99,,,-99.99,Homeseer,2013-05-14 23:28:00,
2013-05-14 19:33:00,54.4,37.1,29.82,North,-999,-999.0,-999.0,41,-99.99,,,-99.99,Homeseer,2013-05-14 23:33:00,
2013-05-14 19:38:00,54.3,36.5,29.82,North,-999,-999.0,-999.0,40,-99.99,,,-99.99,Homeseer,2013-05-14 23:38:00,
2013-05-14 19:43:00,54.0,36.7,29.82,North,-999,-999.0,-999.0,41,-99.99,,,-99.99,Homeseer,2013-05-14 23:43:00,
2013-05-14 19:48:00,53.8,37.4,29.82,North,-999,-999.0,-999.0,43,-99.99,,,-99.99,Homeseer,2013-05-14 23:48:00,
2013-05-14 19:53:00,53.4,37.5,29.83,North,-999,-999.0,-999.0,44,-99.99,,,-99.99,Homeseer,2013-05-14 23:53:00,
2013-05-14 19:58:00,53.0,37.5,29.83,North,-999,-999.0,-999.0,45,-99.99,,,-99.99,Homeseer,2013-05-14 23:58:00,
2013-05-14 20:03:00,52.5,37.5,29.83,North,-999,-999.0,-999.0,46,-99.99,,,-99.99,Homeseer,2013-05-15 00:03:00,
2013-05-14 20:08:00,51.8,38.0,29.83,North,-999,-999.0,-999.0,49,-99.99,,,-99.99,Homeseer,2013-05-15 00:08:00,
2013-05-14 20:13:00,51.3,37.5,29.83,North,-999,-999.0,-999.0,49,-99.99,,,-99.99,Homeseer,2013-05-15 00:13:00,
2013-05-14 20:18:00,50.6,37.3,29.83,North,-999,-999.0,-999.0,50,-99.99,,,-99.99,Homeseer,2013-05-15 00:18:00,
2013-05-14 20:23:00,49.9,37.0,29.84,North,-999,-999.0,-999.0,51,-99.99,,,-99.99,Homeseer,2013-05-15 00:23:00,
2013-05-14 20:28:00,49.2,36.7,29.85,North,-999,-999.0,-999.0,52,-99.99,,,-99.99,Homeseer,2013-05-15 00:28:00,
2013-05-14 20:33:00,48.8,37.4,29.85,North,-999,-999.0,-999.0,55,-99.99,,,-99.99,Homeseer,2013-05-15 00:33:00,
2013-05-14 20:38:00,48.4,36.7,29.85,North,-999,-999.0,-999.0,54,-99.99,,,-99.99,Homeseer,2013-05-15 00:38:00,
2013-05-14 20:43:00,47.8,36.1,29.85,North,-999,-999.0,-999.0,54,-99.99,,,-99.99,Homeseer,2013-05-15 00:43:00,
2013-05-14 20:48:00,47.4,36.1,29.85,North,-999,-999.0,-999.0,55,-99.99,,,-99.99,Homeseer,2013-05-15 00:48:00,
2013-05-14 20:53:00,47.1,36.1,29.86,North,-999,-999.0,-999.0,56,-99.99,,,-99.99,Homeseer,2013-05-15 00:53:00,
2013-05-14 20:58:00,46.8,36.2,29.86,North,-999,-999.0,-999.0,57,-99.99,,,-99.99,Homeseer,2013-05-15 00:58:00,
2013-05-14 21:03:00,46.4,36.1,29.87,North,-999,-999.0,-999.0,58,-99.99,,,-99.99,Homeseer,2013-05-15 01:03:00,
2013-05-14 21:08:00,46.1,35.8,29.87,North,-999,-999.0,-999.0,58,-99.99,,,-99.99,Homeseer,2013-05-15 01:08:00,
2013-05-14 21:13:00,45.9,36.0,29.87,North,-999,-999.0,-999.0,59,-99.99,,,-99.99,Homeseer,2013-05-15 01:13:00,
2013-05-14 21:18:00,45.5,35.9,29.87,North,-999,-999.0,-999.0,60,-99.99,,,-99.99,Homeseer,2013-05-15 01:18:00,
2013-05-14 21:23:00,45.3,35.7,29.87,North,-999,-999.0,-999.0,60,-99.99,,,-99.99,Homeseer,2013-05-15 01:23:00,
2013-05-14 21:28:00,45.0,36.3,29.88,North,-999,-999.0,-999.0,63,-99.99,,,-99.99,Homeseer,2013-05-15 01:28:00,
2013-05-14 21:33:00,44.9,35.9,29.87,North,-999,-999.0,-999.0,62,-99.99,,,-99.99,Homeseer,2013-05-15 01:33:00,
2013-05-14 21:38:00,44.6,35.9,29.87,North,-999,-999.0,-999.0,63,-99.99,,,-99.99,Homeseer,2013-05-15 01:38:00,
2013-05-14 21:43:00,44.4,35.8,29.88,North,-999,-999.0,-999.0,63,-99.99,,,-99.99,Homeseer,2013-05-15 01:43:00,
2013-05-14 21:48:00,44.2,35.8,29.87,North,-999,-999.0,-999.0,64,-99.99,,,-99.99,Homeseer,2013-05-15 01:48:00,
2013-05-14 21:53:00,44.0,35.9,29.88,North,-999,-999.0,-999.0,65,-99.99,,,-99.99,Homeseer,2013-05-15 01:53:00,
2013-05-14 21:58:00,43.6,35.6,29.88,North,-999,-999.0,-999.0,65,-99.99,,,-99.99,Homeseer,2013-05-15 01:58:00,
2013-05-14 22:03:00,43.5,35.2,29.87,North,-999,-999.0,-999.0,64,-99.99,,,-99.99,Homeseer,2013-05-15 02:03:00,
2013-05-14 22:08:00,43.4,35.4,29.88,North,-999,-999.0,-999.0,65,-99.99,,,-99.99,Homeseer,2013-05-15 02:08:00,
2013-05-14 22:13:00,43.2,36.0,29.88,North,-999,-999.0,-999.0,68,-99.99,,,-99.99,Homeseer,2013-05-15 02:13:00,
2013-05-14 22:18:00,43.1,35.6,29.88,North,-999,-999.0,-999.0,67,-99.99,,,-99.99,Homeseer,2013-05-15 02:18:00,
2013-05-14 22:23:00,42.7,35.5,29.88,North,-999,-999.0,-999.0,68,-99.99,,,-99.99,Homeseer,2013-05-15 02:23:00,
2013-05-14 22:28:00,42.6,35.7,29.88,North,-999,-999.0,-999.0,69,-99.99,,,-99.99,Homeseer,2013-05-15 02:28:00,
2013-05-14 22:33:00,42.4,35.5,29.88,North,-999,-999.0,-999.0,69,-99.99,,,-99.99,Homeseer,2013-05-15 02:33:00,
2013-05-14 22:38:00,42.4,35.8,29.88,North,-999,-999.0,-999.0,70,-99.99,,,-99.99,Homeseer,2013-05-15 02:38:00,
2013-05-14 22:43:00,42.0,35.1,29.88,North,-999,-999.0,-999.0,69,-99.99,,,-99.99,Homeseer,2013-05-15 02:43:00,
2013-05-14 22:48:00,41.8,35.2,29.88,North,-999,-999.0,-999.0,70,-99.99,,,-99.99,Homeseer,2013-05-15 02:48:00,
2013-05-14 22:53:00,41.7,35.1,29.88,North,-999,-999.0,-999.0,70,-99.99,,,-99.99,Homeseer,2013-05-15 02:53:00,
2013-05-14 22:58:00,41.5,35.4,29.88,North,-999,-999.0,-999.0,72,-99.99,,,-99.99,Homeseer,2013-05-15 02:58:00,
2013-05-14 23:03:00,41.4,35.3,29.87,North,-999,-999.0,-999.0,72,-99.99,,,-99.99,Homeseer,2013-05-15 03:03:00,
2013-05-14 23:08:00,41.0,34.9,29.87,North,-999,-999.0,-999.0,72,-99.99,,,-99.99,Homeseer,2013-05-15 03:08:00,
2013-05-14 23:13:00,40.9,35.1,29.87,North,-999,-999.0,-999.0,73,-99.99,,,-99.99,Homeseer,2013-05-15 03:13:00,
2013-05-14 23:18:00,40.9,35.1,29.87,North,-999,-999.0,-999.0,73,-99.99,,,-99.99,Homeseer,2013-05-15 03:18:00,
2013-05-14 23:23:00,40.7,34.9,29.88,North,-999,-999.0,-999.0,73,-99.99,,,-99.99,Homeseer,2013-05-15 03:23:00,
2013-05-14 23:28:00,40.7,34.9,29.87,North,-999,-999.0,-999.0,73,-99.99,,,-99.99,Homeseer,2013-05-15 03:28:00,
2013-05-14 23:33:00,40.5,35.0,29.88,North,-999,-999.0,-999.0,74,-99.99,,,-99.99,Homeseer,2013-05-15 03:33:00,
2013-05-14 23:38:00,40.5,35.0,29.88,North,-999,-999.0,-999.0,74,-99.99,,,-99.99,Homeseer,2013-05-15 03:38:00,
2013-05-14 23:43:00,40.2,34.7,29.88,North,-999,-999.0,-999.0,74,-99.99,,,-99.99,Homeseer,2013-05-15 03:43:00,
2013-05-14 23:48:00,40.1,34.6,29.89,North,-999,-999.0,-999.0,74,-99.99,,,-99.99,Homeseer,2013-05-15 03:48:00,
2013-05-14 23:53:00,40.0,34.7,29.89,North,-999,-999.0,-999.0,75,-99.99,,,-99.99,Homeseer,2013-05-15 03:53:00,
2013-05-14 23:58:00,40.0,34.5,29.89,North,-999,-999.0,-999.0,74,-99.99,,,-99.99,Homeseer,2013-05-15 03:58:00,